Location: Pettit
(39.0209°N, 79.7181°W)
Time: 19:19:52
(UTC+00:00)

ACS3 Solar Sail - Pass Details

Date: 27 April 2026
Orbit: 894 x 947 km, 97.2° (Epoch: 12 May)

Event Time Altitude Azimuth Distance (km) Brightness Sun altitude
Rises 05:28:57 0° 22° (NNE) 3,567 5.6 -37.1°
Reaches altitude 10° 05:31:41 10° 32° (NNE) 2,629 4.7 -37.0°
Enters shadow 05:34:50 25° 60° (ENE) 1,767 3.4 -37.0°
